Date,TemperatureHighF,TemperatureAvgF,TemperatureLowF,DewpointHighF,DewpointAvgF,DewpointLowF,HumidityHigh,HumidityAvg,HumidityLow,PressureMaxIn,PressureMinIn,WindSpeedMaxMPH,WindSpeedAvgMPH,GustSpeedMaxMPH,PrecipitationSumIn
2013-1-1,46.6,43.4,39.2,41.6,39.3,36.1,91,86,79,29.94,29.31,29,14,29,0.06
2013-1-2,51.2,45.6,41.0,50.0,44.2,38.6,97,95,90,29.98,29.94,20,6,20,0.26
2013-1-3,53.2,51.7,50.3,50.5,48.9,46.8,96,90,83,30.43,29.95,33,14,33,0.02
2013-1-4,52.1,50.2,48.4,49.8,47.8,45.9,96,91,81,30.49,30.42,20,8,20,0.01
2013-1-5,52.2,50.0,47.7,49.1,47.4,44.6,94,91,84,30.46,30.27,27,11,27,0.04
2013-1-6,47.8,46.5,44.2,45.6,44.7,42.3,95,93,90,30.44,30.34,14,4,14,0.00
2013-1-7,50.0,48.5,46.3,49.2,47.4,44.7,97,96,94,30.36,29.99,20,2,9,0.63
2013-1-8,51.4,49.3,46.2,50.6,46.2,41.7,97,89,75,30.17,29.96,28,14,28,0.38
2013-1-9,47.1,44.8,40.4,43.2,41.6,38.8,94,88,83,30.17,30.07,20,8,20,0.00
2013-1-10,40.3,37.1,34.5,38.7,36.2,33.6,97,97,94,30.07,29.96,10,2,10,0.02
2013-1-11,42.7,40.2,37.9,40.8,38.7,36.6,97,94,89,30.02,29.95,15,4,15,0.02
2013-1-12,40.0,38.6,37.0,37.2,35.8,34.4,94,89,84,30.12,29.94,15,6,15,0.00
2013-1-13,38.4,36.3,33.5,37.1,34.9,32.5,97,95,87,30.13,29.98,17,4,17,0.37
2013-1-14,40.7,37.6,33.5,38.4,34.6,31.1,97,89,78,29.98,29.76,23,6,23,0.27
2013-1-15,37.9,35.3,32.0,35.3,32.6,28.8,94,90,84,29.92,29.84,15,6,15,0.00
2013-1-16,34.6,33.0,31.5,30.7,29.0,27.4,89,85,82,29.98,29.84,14,7,14,0.00
2013-1-17,36.4,34.9,33.3,31.3,30.1,28.3,89,82,76,29.99,29.75,25,12,25,0.00
2013-1-18,36.7,35.1,33.1,31.7,28.1,25.0,85,76,66,29.76,29.53,30,17,30,0.00
2013-1-19,38.8,35.6,34.2,33.3,31.4,29.0,91,85,79,29.73,29.55,26,12,26,0.00
2013-1-20,34.9,34.0,33.2,32.2,30.4,29.0,92,87,81,29.72,29.55,17,10,17,0.00
2013-1-21,35.6,34.7,33.5,33.9,32.6,30.9,96,92,86,29.54,29.47,26,14,26,0.09
2013-1-22,37.3,36.0,34.7,35.1,33.6,32.0,95,91,83,29.84,29.49,27,10,27,0.00
2013-1-23,36.5,35.5,34.1,34.0,32.8,32.0,93,90,85,29.97,29.83,15,8,15,0.00
2013-1-24,38.6,36.6,34.7,35.0,33.2,31.4,93,87,77,30.05,29.94,20,8,20,0.00
2013-1-25,40.1,35.5,33.8,37.3,33.7,32.3,96,93,85,29.94,29.39,24,10,24,0.25
2013-1-26,51.1,42.3,34.5,49.1,38.5,33.5,97,87,72,29.57,28.92,31,12,31,0.90
2013-1-27,51.2,42.9,37.6,49.8,40.8,36.3,97,92,79,29.23,28.77,43,22,43,0.02
2013-1-28,48.7,44.1,40.3,45.9,41.3,37.8,95,90,81,29.34,28.86,46,23,46,0.01
2013-1-29,51.6,47.5,44.8,50.3,43.1,36.0,97,85,65,29.35,28.96,61,23,61,0.72
2013-1-30,47.5,44.7,39.2,42.3,39.1,35.6,95,81,66,29.66,29.12,50,25,50,0.00
2013-1-31,47.5,44.0,40.2,42.1,39.9,37.6,95,86,74,29.66,29.18,52,20,52,0.19
2013-2-1,44.7,41.2,33.4,41.3,36.4,28.3,94,83,69,29.86,29.36,28,8,28,0.05
2013-2-2,42.2,37.2,31.6,37.5,32.3,27.7,90,82,68,30.21,29.86,21,4,21,0.01
2013-2-3,50.4,46.6,39.0,48.1,43.1,36.6,96,88,75,30.04,29.51,54,20,54,0.08
2013-2-4,49.4,41.1,34.0,42.6,35.5,30.0,95,81,66,29.60,29.34,54,33,54,0.09
2013-2-5,46.4,41.2,34.0,40.3,35.5,30.3,95,80,66,29.64,29.07,35,18,35,0.00
2013-2-6,43.7,39.9,33.5,32.9,30.5,27.2,82,69,58,30.17,29.65,25,8,25,0.00
2013-2-7,40.9,38.6,36.3,36.4,34.4,30.6,94,85,78,30.17,30.03,16,5,16,0.00
2013-2-8,44.5,41.6,37.7,40.5,37.5,34.1,96,86,75,30.19,30.09,15,3,15,0.05
2013-2-9,41.4,40.1,37.8,40.1,38.9,36.1,97,95,94,30.12,29.80,20,5,20,0.14
2013-2-10,38.9,36.1,34.1,36.9,34.9,33.1,96,95,92,29.80,29.39,25,15,25,0.04
2013-2-11,38.5,38.5,38.4,36.7,36.7,36.6,93,93,93,29.48,29.47,17,13,17,0.00
2013-2-13,47.6,46.7,46.0,45.6,44.6,42.8,97,92,86,29.53,29.51,27,16,27,1.41
2013-2-14,46.9,45.5,43.7,43.1,41.9,40.7,94,87,81,29.85,29.53,30,15,30,0.06
2013-2-15,48.1,44.9,38.6,42.3,40.5,37.0,95,84,71,30.12,29.85,21,7,21,0.00
2013-2-16,38.8,38.8,38.8,37.5,37.5,37.5,95,95,95,30.12,30.12,1,1,0,0.00
2013-2-17,38.8,38.8,38.8,37.5,37.5,37.5,95,95,95,30.12,30.12,1,1,0,0.00
2013-2-18,46.9,39.6,32.9,39.0,34.8,30.8,94,84,69,30.14,30.09,8,2,8,0.00
2013-2-19,33.5,33.5,33.5,32.0,32.0,32.0,94,94,94,30.14,30.14,1,1,1,0.00
2013-2-20,42.2,39.7,33.5,39.1,36.4,29.6,94,88,80,30.31,30.14,18,9,18,0.00
2013-2-21,38.7,35.0,30.8,30.5,28.6,26.1,89,78,67,30.33,30.28,20,10,20,0.00
2013-2-22,37.1,35.1,33.6,27.9,25.7,24.0,75,68,63,30.34,30.29,16,4,16,0.00
2013-2-23,42.0,35.8,33.6,32.6,28.5,25.6,87,75,60,30.42,30.28,10,3,10,0.00
2013-2-24,45.6,37.3,32.1,36.1,32.5,29.4,91,83,64,30.50,30.41,10,2,10,0.00
2013-2-25,41.1,34.3,30.8,35.1,31.5,28.9,94,90,78,30.65,30.50,8,2,8,0.00
2013-2-26,47.7,39.0,31.7,37.3,34.3,29.8,95,84,66,30.71,30.64,17,6,17,0.00
2013-2-27,50.4,36.9,30.5,44.2,34.9,29.5,97,93,74,30.72,30.61,14,2,14,0.00
2013-2-28,46.3,41.4,33.8,42.7,39.0,32.4,97,91,85,30.61,30.52,7,2,7,0.01
2013-3-1,50.2,44.0,35.9,42.4,39.1,34.1,94,83,70,30.57,30.48,8,2,8,0.00
2013-3-2,52.2,46.2,38.0,45.0,41.8,35.9,94,85,73,30.44,30.27,17,5,17,0.00
2013-3-3,46.7,44.9,42.7,43.7,41.4,38.2,94,87,79,30.27,30.11,14,3,14,0.00
2013-3-4,44.9,42.0,38.0,39.2,37.0,35.3,91,83,73,30.11,29.76,13,4,13,0.00
2013-3-5,38.9,37.7,35.8,36.3,35.4,33.7,93,91,90,29.76,29.71,4,1,4,0.00
2013-3-6,42.5,40.7,38.0,39.3,37.5,35.0,92,88,85,29.72,29.64,27,14,27,0.00
2013-3-7,44.9,42.2,40.3,42.6,40.0,38.3,95,92,87,29.64,29.52,30,18,30,0.00
2013-3-8,41.8,40.7,39.6,39.0,38.1,37.1,95,90,87,29.72,29.53,35,21,35,0.00
2013-3-9,40.2,39.0,37.0,38.0,35.4,29.5,95,87,74,29.92,29.70,34,16,34,0.00
2013-3-10,39.7,34.8,29.2,33.2,28.1,22.3,92,77,60,30.15,29.92,28,11,28,0.01
2013-3-11,38.4,31.9,26.5,23.8,20.5,16.9,80,63,44,30.19,30.14,22,6,22,0.00
2013-3-12,44.9,36.7,28.1,36.4,28.3,20.4,82,72,58,30.18,29.93,16,6,16,0.00
2013-3-13,46.6,38.9,33.0,32.6,27.9,21.1,86,66,39,30.01,29.91,15,5,15,0.00
2013-3-14,44.3,42.4,32.8,41.6,39.4,27.3,93,89,77,30.01,29.59,22,11,22,0.24
2013-3-15,46.9,42.3,35.7,41.0,38.6,33.6,93,87,70,29.58,29.37,28,10,28,0.00
2013-3-16,44.0,38.7,35.3,38.5,35.7,33.2,95,89,72,29.40,29.23,12,4,12,0.11
2013-3-17,43.7,38.7,35.3,39.5,36.3,33.6,95,91,82,29.28,29.14,18,6,18,0.15
2013-3-18,40.5,37.9,34.8,39.2,34.8,28.5,96,89,77,29.58,29.27,24,12,24,0.09
2013-3-19,40.1,36.3,34.3,33.7,31.2,28.5,94,82,71,29.66,29.55,33,16,33,0.00
2013-3-20,40.4,36.6,33.5,35.0,33.0,30.3,95,87,74,30.06,29.66,21,11,21,0.01
2013-3-21,40.9,35.4,31.8,31.9,30.2,27.6,92,82,62,30.08,29.95,46,14,46,0.00
2013-3-22,37.7,35.1,32.8,33.6,31.7,28.6,96,88,72,30.00,29.89,43,24,43,0.00
2013-3-23,35.7,34.8,33.1,32.7,29.4,25.1,96,81,67,30.18,29.99,39,24,39,0.00
2013-3-24,38.2,35.9,34.5,29.7,27.4,25.0,81,71,61,30.31,30.16,38,20,38,0.00
2013-3-25,37.3,35.1,33.3,32.0,29.6,26.7,90,80,71,30.31,30.26,25,12,25,0.00
2013-3-26,38.7,34.5,31.1,32.5,29.3,27.1,91,81,67,30.28,30.18,22,8,22,0.01
2013-3-27,41.2,35.1,30.9,32.2,29.3,26.8,90,80,59,30.19,30.10,21,8,21,0.00
2013-3-28,41.2,36.1,32.6,31.5,28.3,25.5,86,74,56,30.13,30.05,25,9,25,0.00
2013-3-29,42.2,36.0,31.8,32.1,28.7,25.3,88,75,58,30.06,29.93,20,7,20,0.00
2013-3-30,43.2,36.8,30.1,29.8,27.9,25.8,88,70,54,30.02,29.98,12,4,12,0.00
2013-3-31,41.6,37.2,32.2,29.5,27.4,24.4,82,68,52,30.02,29.97,18,10,18,0.00
2013-4-1,43.3,36.5,31.1,28.8,26.9,24.6,82,69,54,30.10,30.00,24,12,24,0.00
2013-4-2,44.7,39.0,33.8,32.5,28.8,26.4,82,67,53,30.27,30.11,18,6,18,0.00
2013-4-3,47.7,39.9,33.1,33.8,30.2,27.8,89,70,48,30.33,30.27,15,6,15,0.00
2013-4-4,47.7,41.0,32.8,33.2,30.5,27.8,85,67,47,30.32,30.25,20,5,20,0.00
2013-4-5,48.7,41.2,34.7,35.6,32.6,30.8,88,72,53,30.29,30.24,13,3,13,0.00
2013-4-6,46.7,39.7,30.7,39.4,34.4,28.5,93,82,66,30.30,30.22,23,5,23,0.00
2013-4-7,46.3,40.6,37.1,38.5,35.8,33.8,88,83,72,30.22,29.99,25,9,25,0.00
2013-4-8,43.7,39.2,34.9,34.5,31.9,28.3,89,76,56,29.99,29.74,26,12,26,0.00
2013-4-9,46.1,39.6,33.2,33.5,28.1,20.6,81,65,39,29.75,29.66,24,12,24,0.00
2013-4-10,46.8,40.9,37.1,38.5,35.8,33.6,89,82,71,29.72,29.59,21,10,21,0.00
2013-4-11,43.9,40.3,38.3,40.1,37.0,34.8,93,88,85,29.59,29.41,21,11,21,0.20
2013-4-12,42.5,39.6,36.0,40.6,37.6,34.2,94,92,88,29.67,29.39,20,8,20,0.01
2013-4-13,52.9,45.4,40.4,48.1,41.2,38.9,95,86,61,29.74,29.39,24,8,24,0.05
2013-4-14,54.9,51.5,47.7,50.4,47.9,45.8,97,88,75,29.44,29.36,43,22,43,0.13
2013-4-15,54.0,50.3,47.1,48.0,45.9,42.7,96,85,73,29.74,29.44,43,17,43,0.00
2013-4-16,50.9,48.3,45.5,46.7,43.5,39.5,97,84,66,29.85,29.33,51,27,51,0.00
2013-4-17,52.6,47.0,42.1,49.9,43.9,39.0,95,89,76,29.85,29.10,38,14,38,0.65
2013-4-18,50.4,47.6,44.7,47.4,43.2,39.2,96,85,72,29.94,29.08,48,22,48,0.02
2013-4-19,52.4,46.5,38.4,42.0,38.2,34.6,87,73,56,30.43,29.95,24,10,24,0.00
2013-4-20,52.9,48.5,42.4,44.5,42.7,39.8,92,81,68,30.43,30.13,31,13,31,0.00
2013-4-21,50.4,46.8,43.2,44.6,42.4,39.6,92,85,70,30.13,29.86,29,13,29,0.12
2013-4-22,53.0,48.1,45.6,48.7,43.5,41.1,96,84,69,29.86,29.63,43,20,43,0.00
2013-4-23,51.9,49.6,47.7,43.9,42.5,40.0,85,76,68,30.06,29.75,37,21,37,0.00
2013-4-24,51.2,47.7,44.9,47.0,41.5,35.2,96,80,58,30.24,29.89,29,11,29,0.34
2013-4-25,49.8,44.8,41.8,42.3,40.1,37.4,92,84,66,30.23,30.05,31,12,31,0.04
2013-4-26,50.7,43.9,39.3,41.2,38.5,36.1,93,81,62,30.06,29.88,32,12,32,0.09
2013-4-27,51.6,45.1,39.3,38.4,34.5,30.9,91,67,47,30.16,29.98,25,9,25,0.00
2013-4-28,49.2,45.0,40.9,44.7,40.7,36.3,96,85,67,29.98,29.63,36,21,36,0.00
2013-4-29,50.2,46.5,43.0,41.0,39.1,35.7,90,76,61,30.12,29.64,39,21,39,0.00
2013-4-30,51.4,46.3,37.8,41.5,37.4,34.6,89,72,55,30.31,30.13,23,8,23,0.00
2013-5-1,51.4,47.8,41.7,43.9,39.5,34.5,92,74,54,30.29,30.11,28,14,28,0.00
2013-5-2,50.5,44.3,35.2,46.5,39.3,31.7,91,83,69,30.29,29.99,25,8,25,0.01
2013-5-3,50.9,48.6,43.0,48.7,46.0,38.5,95,91,83,29.99,29.67,28,17,28,0.01
2013-5-4,50.9,46.1,40.9,45.2,40.9,36.3,89,82,75,29.89,29.76,34,17,34,0.00
2013-5-5,55.0,51.8,49.2,52.1,48.6,44.6,96,89,79,30.04,29.89,20,9,20,0.06
2013-5-6,53.2,51.2,49.5,50.0,48.8,47.7,94,91,87,30.06,29.99,21,8,21,0.00
2013-5-7,67.8,56.1,44.4,53.0,48.4,43.1,96,77,54,30.07,29.83,15,4,15,0.00
2013-5-8,60.2,53.2,49.5,53.2,47.6,43.3,92,82,59,29.83,29.43,31,16,31,0.00
2013-5-9,51.6,48.5,46.3,46.4,43.8,41.5,91,84,74,29.52,29.34,25,11,25,0.01
2013-5-10,50.7,47.1,41.1,47.6,43.8,39.1,94,88,80,29.64,29.42,29,7,29,0.05
2013-5-11,51.7,47.4,43.9,46.3,43.7,41.5,95,87,79,29.77,29.48,32,14,32,0.09
2013-5-12,52.2,47.4,43.5,48.6,43.9,37.7,95,88,79,29.80,29.59,36,13,36,0.06
2013-5-13,49.0,43.8,38.3,43.3,39.3,35.8,92,84,68,29.64,29.44,40,19,40,0.02
2013-5-14,51.9,45.9,42.0,44.3,41.2,37.8,94,84,60,29.44,29.36,34,16,34,0.02
2013-5-15,56.7,48.1,41.8,43.5,39.6,34.8,90,73,46,29.44,29.33,29,10,29,0.00
2013-5-16,54.2,47.5,40.7,44.1,40.3,35.3,91,77,57,29.70,29.41,17,7,17,0.07
2013-5-17,62.6,52.7,42.8,45.0,40.0,34.6,88,64,36,29.90,29.70,14,5,14,0.00
2013-5-18,60.9,53.3,48.3,56.7,50.2,42.4,96,89,72,29.88,29.70,16,4,16,0.46
2013-5-19,58.4,53.7,50.3,54.9,51.7,48.9,96,93,86,30.00,29.81,13,4,13,0.05
2013-5-20,70.0,60.0,53.8,58.2,54.2,49.9,95,82,64,30.05,29.94,24,10,24,0.00
2013-5-21,61.5,54.6,48.2,49.8,45.3,42.7,84,71,53,30.13,30.05,24,13,24,0.00
2013-5-22,54.2,49.2,40.9,44.9,39.7,33.8,89,71,49,30.13,30.06,34,16,34,0.01
2013-5-23,50.1,45.7,41.9,38.1,36.2,32.9,81,70,54,30.06,29.96,30,16,30,0.00
2013-5-24,59.9,52.3,43.1,45.1,37.8,32.5,83,59,41,30.22,29.97,22,8,22,0.00
2013-5-25,57.9,48.6,40.3,45.8,41.8,38.2,93,78,58,30.22,30.16,17,4,17,0.00
2013-5-26,57.9,57.9,57.9,44.1,44.1,44.1,60,60,60,30.16,30.16,9,9,9,0.00
2013-5-27,57.9,52.1,50.0,48.4,46.6,44.1,92,82,60,30.16,29.42,20,10,20,0.00
2013-5-28,56.2,52.2,47.0,50.1,46.7,43.6,89,82,69,29.80,29.50,18,8,18,0.01
2013-5-29,68.3,57.6,43.5,53.8,47.4,39.9,88,70,52,29.95,29.80,14,4,14,0.00
2013-5-30,70.3,61.6,54.6,52.5,48.6,43.1,80,63,48,30.08,29.93,17,6,17,0.00
2013-5-31,57.4,53.1,47.7,51.7,46.9,41.7,91,80,64,30.22,30.08,25,11,25,0.00
2013-6-1,55.7,50.3,43.8,49.3,43.7,40.3,92,79,58,30.33,30.21,25,10,25,0.02
2013-6-2,62.2,54.2,44.1,48.6,44.2,40.0,90,70,49,30.46,30.33,15,6,15,0.00
2013-6-3,67.1,57.9,51.6,58.4,52.9,47.3,95,84,71,30.51,30.46,14,3,14,0.00
2013-6-4,72.0,63.0,55.0,54.5,51.4,46.4,92,68,47,30.50,30.32,15,6,15,0.00
2013-6-5,67.1,58.3,53.5,57.5,53.2,46.3,93,83,60,30.32,30.15,16,4,16,0.43
2013-6-6,67.3,58.6,50.6,55.1,51.0,46.0,92,77,54,30.27,30.19,17,5,17,0.00
2013-6-7,69.4,62.8,56.2,56.1,52.7,48.7,81,70,60,30.33,30.27,15,8,15,0.00
2013-6-8,70.0,60.1,50.0,54.7,50.2,47.1,92,71,49,30.33,30.11,18,6,18,0.00
2013-6-9,68.1,58.0,51.2,55.9,51.6,48.5,91,80,60,30.14,29.97,17,7,17,0.00
2013-6-10,62.1,55.6,52.5,53.9,50.9,48.8,90,84,74,30.02,29.90,17,10,17,0.00
2013-6-11,57.2,55.0,53.5,52.1,50.7,49.4,90,85,79,29.82,29.77,17,9,17,0.10
2013-6-12,59.9,56.1,51.1,53.6,51.1,47.2,91,83,73,29.64,29.60,20,9,20,0.28
2013-6-13,57.9,53.4,46.5,47.9,46.3,42.8,95,77,59,29.80,29.58,28,12,28,0.00
2013-6-14,61.6,54.9,50.0,53.8,49.2,46.6,92,81,68,29.82,29.55,26,10,26,0.10
2013-6-15,54.6,51.2,48.5,51.3,48.4,45.4,93,90,83,29.61,29.36,27,11,27,0.05
2013-6-16,64.1,56.3,49.6,53.4,50.4,47.9,95,81,61,30.00,29.61,14,4,14,0.00
2013-6-17,68.8,59.4,51.1,55.6,51.7,48.6,93,77,55,30.08,30.00,12,2,12,0.00
2013-6-18,65.8,60.6,54.9,55.7,53.4,48.7,90,78,59,30.03,29.94,18,7,18,0.00
2013-6-19,60.7,56.4,51.4,52.2,49.5,46.1,89,78,59,30.04,29.98,23,8,23,0.00
2013-6-20,54.9,52.9,51.7,51.2,49.5,47.3,90,88,84,30.03,29.96,8,2,8,0.01
2013-6-21,54.9,54.9,54.9,51.1,51.1,51.1,87,87,87,29.97,29.97,7,7,7,0.03
2013-6-22,54.9,54.9,54.9,51.1,51.1,51.1,87,87,87,29.97,29.97,7,7,7,0.01
2013-6-23,54.9,54.9,54.9,51.1,51.1,51.1,87,87,87,29.97,29.97,7,7,7,0.03
2013-6-24,58.7,55.4,49.2,48.2,45.7,43.4,87,70,59,30.29,30.10,22,12,22,0.00
2013-6-25,61.8,55.0,46.6,52.6,49.2,44.1,92,81,67,30.41,30.28,20,4,20,0.00
2013-6-26,60.7,56.3,50.7,50.6,47.9,44.3,91,74,58,30.46,30.41,21,9,21,0.00
2013-6-27,60.5,54.7,51.9,56.9,51.0,45.6,95,88,77,30.44,30.17,20,9,20,0.11
2013-6-28,58.4,55.6,52.9,55.6,52.4,45.4,96,89,72,30.17,29.94,27,14,27,0.01
2013-6-29,57.1,54.1,51.7,55.1,50.3,46.6,96,87,80,30.15,30.09,24,11,24,0.00
2013-6-30,58.3,56.1,52.2,55.4,52.2,47.4,95,87,72,30.12,29.87,30,14,30,0.01
2013-7-1,57.8,54.0,50.4,48.7,46.9,43.2,93,77,60,29.92,29.86,26,12,26,0.00
2013-7-2,56.2,53.8,50.1,53.9,50.8,46.3,96,90,82,29.89,29.45,26,8,26,0.10
2013-7-3,60.9,57.2,54.1,54.4,53.1,51.7,96,86,74,29.81,29.46,20,8,20,0.04
2013-7-4,60.7,58.1,55.9,58.1,53.2,48.4,96,84,70,30.14,29.72,36,17,36,0.16
2013-7-5,57.2,55.3,53.8,52.7,51.3,48.8,93,87,78,30.33,30.14,23,14,23,0.00
2013-7-6,57.2,57.2,57.2,52.4,52.4,52.4,84,84,84,30.33,30.33,15,15,15,0.00
2013-7-7,57.2,57.2,57.2,52.4,52.4,52.4,84,84,84,30.33,30.33,15,15,15,0.00
2013-7-8,63.7,60.4,57.2,60.7,56.5,52.4,90,87,84,30.49,30.33,15,10,15,0.00
2013-7-9,78.2,69.2,58.0,62.8,60.4,56.6,95,75,56,30.49,30.35,20,7,20,0.00
2013-7-10,76.1,65.5,59.6,63.2,59.5,56.6,91,82,63,30.41,30.32,20,6,20,0.00
2013-7-11,75.2,66.7,58.4,66.0,60.4,55.2,90,81,69,30.36,30.26,13,4,13,0.00
2013-7-12,77.2,68.1,59.5,65.3,61.2,57.8,95,80,60,30.28,30.22,17,4,17,0.00
2013-7-13,68.2,63.9,57.1,60.7,56.2,48.8,92,76,60,30.32,30.25,21,10,21,0.00
2013-7-14,65.4,59.2,54.3,54.0,51.3,48.8,85,75,60,30.32,30.21,17,9,17,0.00
2013-7-15,66.5,60.5,57.2,58.1,55.8,53.4,91,85,69,30.23,30.19,20,10,20,0.00
2013-7-16,67.7,63.4,59.9,61.2,59.3,57.5,95,87,73,30.25,30.20,18,7,18,0.00
2013-7-17,71.9,65.9,59.9,61.2,58.7,56.6,90,78,63,30.35,30.25,17,7,17,0.00
2013-7-18,75.0,67.6,62.0,65.8,61.8,58.3,92,82,68,30.38,30.34,17,6,17,0.00
2013-7-19,76.1,63.9,55.6,61.8,57.5,53.3,93,80,60,30.41,30.33,16,4,16,0.00
2013-7-20,80.3,67.8,57.8,63.9,59.1,55.5,93,75,48,30.36,30.23,17,8,17,0.00
2013-7-21,73.8,63.4,57.8,60.2,56.4,52.8,91,79,60,30.28,30.11,26,12,26,0.00
2013-7-22,69.8,64.0,60.5,61.3,58.7,56.0,89,83,72,30.14,29.98,22,10,22,0.00
2013-7-23,68.3,63.7,60.3,65.2,60.7,58.0,95,90,85,29.98,29.86,22,8,22,0.14
2013-7-24,71.5,64.0,58.1,63.4,59.8,56.9,97,86,74,29.90,29.86,17,4,17,0.00
2013-7-25,70.1,62.2,57.7,64.5,59.5,56.2,96,91,75,29.89,29.79,18,3,18,0.52
2013-7-26,70.6,63.0,58.3,61.7,59.5,56.6,96,89,72,29.85,29.81,18,4,18,0.19
2013-7-27,74.0,63.2,54.9,62.0,57.4,53.6,96,82,58,29.85,29.64,15,3,15,0.00
2013-7-28,67.1,61.2,58.1,61.2,58.4,56.3,96,91,79,29.64,29.55,17,3,17,0.57
2013-7-29,66.4,60.8,57.5,61.3,57.7,54.7,96,89,82,29.75,29.61,25,6,25,0.09
2013-7-30,64.1,59.3,53.9,57.1,54.7,51.9,94,85,69,29.81,29.75,18,8,18,0.00
2013-7-31,65.0,59.6,52.7,56.6,54.3,49.6,94,83,59,29.88,29.74,20,6,20,0.17
2013-8-1,65.8,61.6,57.7,63.4,59.8,55.4,97,94,90,29.74,29.60,20,7,20,0.64
2013-8-2,69.5,64.9,61.8,62.6,58.9,56.1,94,81,64,29.61,29.52,29,13,29,0.00
2013-8-3,64.1,59.8,56.6,57.1,53.8,50.6,92,81,64,29.85,29.56,34,17,34,0.10
2013-8-4,65.0,60.1,54.6,57.6,54.9,52.6,94,83,71,29.90,29.83,20,8,20,0.06
2013-8-5,66.8,59.3,53.2,56.3,53.0,50.6,95,81,60,29.89,29.77,21,7,21,0.00
2013-8-6,61.9,58.6,55.2,55.5,52.4,49.4,89,80,73,29.97,29.88,16,7,16,0.00
2013-8-7,69.1,60.0,55.0,59.1,55.5,52.9,94,85,66,30.07,29.96,7,3,7,0.33
2013-8-8,66.6,59.5,52.1,59.1,54.5,50.7,96,84,66,30.07,29.90,13,3,13,0.00
2013-8-9,63.0,59.6,56.5,57.3,54.3,50.1,95,83,66,30.14,29.87,29,11,29,0.16
2013-8-10,60.2,57.1,53.2,54.8,52.3,50.3,93,84,75,30.15,29.99,20,8,20,0.00
2013-8-11,59.9,56.8,55.0,53.8,52.1,50.2,93,85,75,29.99,29.88,27,14,27,0.06
2013-8-12,61.4,57.5,54.1,53.2,51.8,49.9,94,82,69,30.06,29.85,24,12,24,0.05
2013-8-13,64.8,57.2,48.7,53.3,50.1,46.8,94,78,58,30.16,30.05,20,5,20,0.00
2013-8-14,64.3,59.7,56.3,59.8,56.4,51.5,96,89,79,30.16,29.93,16,3,16,0.12
2013-8-15,64.8,61.5,59.2,61.8,59.9,57.1,96,95,87,29.93,29.74,20,5,20,0.40
2013-8-16,63.0,60.6,56.5,57.4,55.8,53.3,94,84,79,29.87,29.77,22,5,22,0.00
2013-8-17,62.9,62.9,62.9,56.3,56.3,56.3,79,79,79,29.84,29.56,255,0,0,0.00
2013-8-18,62.9,62.9,62.9,56.3,56.3,56.3,79,79,79,29.81,29.63,255,0,0,0.00
2013-8-19,62.9,60.7,55.7,56.3,54.0,49.0,91,79,65,30.18,29.81,255,11,31,0.05
2013-8-20,64.1,59.6,56.9,58.0,55.7,52.1,95,87,77,30.24,30.12,21,7,21,0.04
2013-8-21,66.7,61.7,58.8,62.0,59.0,57.1,95,91,82,30.12,30.02,22,7,22,0.06
2013-8-22,69.0,62.2,58.0,62.3,59.1,56.6,97,90,78,30.12,29.98,21,8,21,0.00
2013-8-23,66.6,61.0,57.8,61.8,58.1,55.3,95,90,83,29.99,29.87,16,6,16,0.00
2013-8-24,66.7,59.9,52.4,56.3,53.8,49.3,95,81,59,29.99,29.91,18,5,18,0.00
2013-8-25,71.8,59.3,47.5,58.0,52.5,46.1,95,79,56,30.17,29.99,9,3,9,0.00
2013-8-26,64.9,58.6,53.2,57.5,54.4,51.0,94,86,74,30.18,30.11,16,4,16,0.00
2013-8-27,64.0,58.7,52.5,60.0,55.1,48.1,93,88,77,30.21,30.08,22,7,22,0.00
2013-8-28,62.1,56.4,52.5,54.5,51.1,47.1,95,83,68,30.23,30.08,22,5,22,0.00
2013-8-29,61.0,58.9,56.6,57.9,56.1,51.6,95,91,86,30.08,30.00,20,11,20,0.01
2013-8-30,61.7,59.3,57.4,59.4,56.6,51.4,94,91,81,30.03,29.85,44,11,44,0.00
2013-8-31,59.4,56.4,53.3,51.2,47.5,42.8,87,72,56,30.30,30.13,36,22,36,0.00
2013-9-1,59.1,57.0,53.8,57.5,52.9,49.8,96,86,76,30.30,30.16,43,23,43,0.00
2013-9-2,63.0,60.8,57.8,60.1,58.6,56.6,96,93,87,30.27,30.14,34,14,34,0.03
2013-9-3,66.3,61.9,59.0,60.3,58.0,55.3,95,87,71,30.27,30.19,22,9,22,0.00
2013-9-4,63.7,59.3,54.6,57.6,55.1,52.6,95,86,72,30.19,29.91,25,7,25,0.00
2013-9-5,61.1,56.5,48.5,57.0,48.6,41.8,92,76,52,29.94,29.88,24,8,24,0.00
2013-9-6,60.6,51.2,44.0,49.8,45.3,41.7,93,81,60,29.97,29.90,12,2,12,0.33
2013-9-7,58.6,52.6,47.1,52.4,48.7,44.6,94,87,72,29.94,29.74,29,8,29,0.48
2013-9-8,58.4,53.2,49.2,52.7,48.7,45.8,96,85,74,29.97,29.90,18,8,18,0.07
2013-9-9,64.3,54.5,49.1,54.1,50.0,46.8,96,85,61,30.19,29.96,17,3,17,0.02
2013-9-10,61.7,55.7,48.4,52.9,49.7,44.8,92,81,65,30.27,30.19,24,8,24,0.00
2013-9-11,61.3,56.9,54.8,59.0,54.2,50.9,96,91,85,30.26,30.09,25,6,25,0.15
2013-9-12,60.3,56.9,52.9,58.8,54.7,50.3,96,92,85,30.10,29.89,28,6,28,0.20
2013-9-13,55.7,52.4,47.8,50.2,46.9,42.7,90,82,73,30.11,30.02,21,6,21,0.00
2013-9-14,60.7,51.9,43.7,50.4,46.8,42.3,96,83,65,30.09,29.92,20,4,20,0.00
2013-9-15,57.2,52.3,46.7,56.1,48.4,41.0,96,87,68,29.92,29.22,53,20,53,0.05
2013-9-16,54.1,49.5,44.6,47.8,44.5,40.6,91,83,75,29.37,29.28,43,20,43,0.08
2013-9-17,55.8,51.4,45.5,48.1,45.8,42.9,91,81,70,29.42,29.30,38,16,38,0.02
2013-9-18,55.0,50.1,44.1,48.2,46.1,42.3,94,86,73,29.76,29.42,31,9,31,0.06
2013-9-19,52.3,50.1,47.3,51.2,48.3,45.3,97,93,86,29.81,29.51,17,5,17,0.42
2013-9-20,59.4,53.5,46.9,53.6,50.0,45.1,96,88,74,30.04,29.81,23,8,23,0.00
2013-9-21,61.1,57.9,55.5,58.7,55.1,51.8,95,91,87,30.12,30.02,24,8,24,0.01
2013-9-22,64.0,60.6,56.7,59.4,57.6,54.7,95,90,85,30.30,30.12,23,10,23,0.00
2013-9-23,63.5,59.3,56.7,60.0,57.5,55.1,96,94,88,30.29,30.12,8,2,8,0.01
2013-9-24,60.5,58.4,56.2,58.0,56.8,55.4,97,94,90,30.12,29.96,17,5,17,0.01
2013-9-25,57.4,55.0,49.2,55.7,52.5,46.8,95,91,88,30.06,29.91,21,8,21,0.00
2013-9-26,50.7,47.9,46.6,47.6,45.1,43.8,92,90,89,30.09,30.06,16,9,16,0.00
2013-9-27,47.8,47.8,47.8,44.7,44.7,44.7,89,89,89,30.08,30.08,9,9,9,0.00
2013-9-28,47.8,47.8,47.8,44.7,44.7,44.7,89,89,89,30.08,30.08,9,9,9,0.00
2013-9-29,47.8,47.8,47.8,44.7,44.7,44.7,89,89,89,30.08,30.08,9,9,9,0.00
2013-9-30,47.8,47.8,47.8,44.7,44.7,44.7,89,89,89,30.08,30.08,9,9,9,0.00
2013-10-1,47.8,47.8,47.8,44.7,44.7,44.7,89,89,89,30.08,30.08,9,9,9,0.00
2013-10-2,47.8,47.8,47.8,44.7,44.7,44.7,89,89,89,30.08,30.08,9,9,9,0.00
2013-10-3,64.4,58.7,47.8,61.1,56.6,44.7,95,93,89,30.08,29.53,15,8,15,1.39
2013-10-4,61.9,58.0,56.1,57.4,55.8,53.3,97,93,82,29.84,29.53,23,5,23,0.06
2013-10-5,60.0,56.6,53.7,55.8,53.2,50.3,94,89,79,30.09,29.84,18,9,18,0.00
2013-10-6,62.8,58.7,56.3,60.0,56.7,54.9,96,93,87,30.10,30.05,22,7,22,0.02
2013-10-7,62.6,60.6,59.3,59.5,58.2,57.0,96,92,88,30.08,29.98,29,12,29,0.07
2013-10-8,59.5,56.2,53.1,57.7,52.9,47.7,95,89,77,30.18,29.97,35,17,35,0.01
2013-10-9,53.4,50.2,44.2,49.4,43.5,34.8,90,78,64,30.20,29.98,45,20,45,0.01
2013-10-10,54.2,47.3,40.4,38.9,37.2,35.3,85,69,52,30.46,30.21,20,5,20,0.00
2013-10-11,44.9,40.0,36.3,39.7,36.0,33.6,92,86,80,30.53,30.45,13,2,13,0.00
2013-10-12,44.9,44.9,44.9,39.7,39.7,39.7,82,82,82,30.53,30.53,6,6,6,0.00
2013-10-13,44.9,44.9,44.9,39.7,39.7,39.7,82,82,82,30.53,30.53,6,6,6,0.00
2013-10-14,52.7,49.9,44.9,51.0,46.3,39.7,94,87,82,30.53,29.95,14,5,14,0.06
2013-10-15,55.7,50.4,47.3,48.2,45.8,43.5,92,84,74,29.99,29.93,16,5,16,0.00
2013-10-16,52.6,48.9,45.1,48.8,46.3,43.5,96,91,84,29.98,29.61,26,9,26,0.33
2013-10-17,52.9,49.7,47.2,51.2,48.3,46.1,97,95,93,29.97,29.66,15,4,15,0.24
2013-10-18,54.4,50.8,48.8,52.4,48.9,47.1,96,93,91,30.00,29.64,29,13,29,0.01
2013-10-19,57.2,54.9,53.8,55.8,53.4,51.9,96,95,92,29.64,29.43,21,8,21,0.62
2013-10-20,57.4,54.9,53.7,54.8,53.0,51.4,96,93,90,29.47,29.37,20,8,20,0.20
2013-10-21,55.2,53.7,52.3,53.3,51.6,50.6,96,93,88,29.51,29.25,23,8,23,0.43
2013-10-22,59.2,57.7,52.7,57.2,55.2,51.5,97,91,86,29.25,29.06,27,8,27,0.23
2013-10-23,57.7,53.0,47.6,55.6,49.0,42.3,96,86,71,29.58,28.98,45,19,45,0.06
2013-10-24,57.4,50.7,47.6,49.1,46.3,44.0,94,85,71,29.89,29.58,27,11,27,0.00
2013-10-25,58.7,53.4,49.0,55.5,50.8,45.0,95,91,83,29.83,29.30,27,14,27,0.08
2013-10-26,55.4,52.7,50.2,53.5,49.1,46.9,95,88,77,29.44,29.14,36,11,36,0.11
2013-10-27,54.5,51.9,48.9,49.9,48.1,46.1,93,87,78,29.15,28.83,47,19,47,0.09
2013-10-28,51.6,50.2,48.3,48.6,46.6,43.8,93,87,81,29.36,28.89,28,15,28,0.02
2013-10-29,51.6,47.8,41.9,45.2,42.8,38.9,91,83,74,29.90,29.36,31,13,31,0.03
2013-10-30,54.1,48.8,42.3,52.2,45.4,39.4,96,88,75,29.91,29.60,43,12,43,0.03
2013-10-31,53.2,49.7,46.0,47.1,44.9,41.1,89,83,75,29.81,29.60,39,17,39,0.01
2013-11-1,50.7,47.5,42.4,46.7,43.4,40.4,96,86,78,29.62,29.55,40,16,40,0.03
2013-11-2,45.6,43.3,41.3,43.2,41.0,38.9,96,92,84,29.55,28.88,35,11,35,0.49
2013-11-3,48.5,45.0,37.0,42.2,40.0,34.9,94,83,71,29.31,29.00,40,17,40,0.00
2013-11-4,48.5,40.3,34.7,40.9,37.2,33.3,96,89,71,29.38,29.23,14,3,14,0.01
2013-11-5,45.5,39.0,34.5,41.5,37.3,33.5,97,94,80,29.32,29.17,38,5,38,0.35
2013-11-6,46.5,43.8,39.3,43.5,41.0,37.6,96,90,86,29.38,29.25,24,9,24,0.33
2013-11-7,49.4,45.9,39.5,45.5,41.8,37.4,94,86,75,29.48,29.35,43,16,43,0.20
2013-11-8,48.4,47.5,46.7,44.2,43.9,43.1,90,87,84,29.48,29.47,28,20,28,0.32
2013-11-9,47.4,47.4,47.4,44.0,44.0,44.0,88,88,88,29.48,29.48,21,21,21,0.00
2013-11-10,47.4,47.4,47.4,44.0,44.0,44.0,88,88,88,29.48,29.48,21,21,21,0.00
2013-11-11,47.4,47.4,47.4,44.0,44.0,44.0,88,88,88,29.48,29.48,21,21,21,0.00
2013-11-12,47.4,47.4,47.4,44.0,44.0,44.0,88,88,88,29.48,29.48,21,21,21,0.00
2013-11-13,47.4,47.4,47.4,44.0,44.0,44.0,88,88,88,29.48,29.48,21,21,21,0.00
2013-11-14,48.4,45.9,43.2,44.0,39.5,36.6,89,78,69,30.47,29.48,40,14,40,0.01
2013-11-15,52.2,50.2,47.6,49.4,46.8,41.2,96,88,77,30.47,30.34,34,14,34,0.00
2013-11-16,52.6,50.8,43.7,51.1,47.7,40.1,97,89,78,30.36,30.22,33,18,33,0.00
2013-11-17,43.5,41.0,37.2,42.0,39.7,36.1,97,95,88,30.37,29.93,6,1,6,0.03
2013-11-18,45.9,41.4,35.4,43.4,38.6,33.3,97,90,72,29.92,29.78,32,5,32,0.09
2013-11-19,46.6,38.8,33.1,44.9,34.3,29.5,95,84,70,30.03,29.60,38,11,38,0.01
2013-11-20,47.9,43.8,40.1,44.5,36.2,28.9,94,75,59,29.85,29.43,44,21,44,0.00
2013-11-21,40.8,36.8,33.3,33.1,30.0,28.0,83,76,64,30.01,29.84,17,3,17,0.00
2013-11-22,38.7,38.7,38.7,32.7,32.7,32.7,79,79,79,30.01,30.01,4,4,4,0.00
2013-11-23,38.7,38.7,38.7,32.7,32.7,32.7,79,79,79,30.01,30.01,4,4,4,0.00
2013-11-24,38.7,38.7,38.7,32.7,32.7,32.7,79,79,79,30.01,30.01,4,4,4,0.00
2013-11-25,38.7,38.7,38.7,32.7,32.7,32.7,79,79,79,30.01,30.01,4,4,4,0.00
2013-11-26,38.7,38.7,38.7,32.7,32.7,32.7,79,79,79,30.01,30.01,4,4,4,0.00
2013-11-27,38.7,38.7,38.7,32.7,32.7,32.7,79,79,79,30.01,30.01,4,4,4,0.00
2013-11-28,38.7,38.7,38.7,32.7,32.7,32.7,79,79,79,30.01,30.01,4,4,4,0.00
2013-11-29,47.3,45.9,38.7,40.9,39.2,32.7,87,78,72,30.32,30.01,43,22,43,0.01
2013-11-30,50.1,49.4,45.9,46.6,45.5,38.3,91,86,75,30.38,30.31,26,13,26,0.00
2013-12-1,51.0,47.8,42.2,47.2,44.8,40.3,95,89,81,30.58,30.38,22,6,22,0.00
2013-12-2,49.1,46.8,44.3,45.7,43.4,40.5,95,88,76,30.57,30.32,24,8,24,0.00
2013-12-3,51.4,48.2,42.6,48.6,44.8,37.8,93,88,77,30.32,30.11,30,15,30,0.00
2013-12-4,47.2,43.7,37.3,43.4,39.4,35.3,95,85,76,30.31,30.06,45,18,45,0.04
2013-12-5,48.0,41.4,35.1,46.8,36.5,27.0,97,83,61,30.15,29.50,89,34,89,3.09
2013-12-6,40.2,37.4,34.2,33.2,30.9,25.6,95,78,57,30.32,30.14,39,10,39,0.06
2013-12-7,50.4,41.4,34.1,47.9,40.0,32.8,97,95,88,30.22,29.93,36,10,36,0.19
2013-12-8,54.0,51.7,49.3,52.4,49.9,46.8,97,94,85,29.95,29.85,46,24,46,0.01
2013-12-9,54.1,52.3,50.6,52.5,49.4,46.2,97,90,83,30.18,29.95,43,15,43,0.00
2013-12-10,54.4,52.6,50.3,51.6,48.7,45.3,91,86,79,30.18,30.13,39,17,39,0.00
2013-12-11,54.3,50.9,45.6,51.5,47.1,41.1,91,87,82,30.21,29.99,34,11,34,0.03
2013-12-12,55.9,52.8,47.7,53.9,51.0,43.7,96,94,84,29.99,29.89,35,11,35,0.51
2013-12-13,55.2,51.7,46.1,52.5,48.0,40.2,96,87,75,29.89,29.68,35,14,35,0.06
2013-12-14,52.1,48.1,44.2,49.5,44.7,39.3,97,88,79,29.91,29.40,52,22,52,0.00
2013-12-15,51.4,46.4,42.7,47.8,42.1,38.3,96,85,74,29.83,29.51,43,16,43,0.00
2013-12-16,49.1,45.4,40.1,44.6,39.7,36.6,90,81,70,29.96,29.49,43,22,43,0.00
2013-12-17,47.6,44.5,42.0,40.8,39.4,37.1,89,82,74,30.06,29.95,34,15,34,0.01
2013-12-18,51.2,47.5,43.5,49.4,41.0,37.9,94,78,74,29.98,28.70,63,28,63,0.01
2013-12-19,44.3,40.9,36.4,40.5,37.2,34.8,96,87,77,29.47,28.78,60,28,60,0.05
2013-12-20,49.4,45.0,40.4,48.0,42.0,36.9,95,89,84,29.70,29.37,46,24,46,0.55
2013-12-21,49.4,44.4,40.3,48.0,40.9,36.3,95,88,81,29.38,29.24,45,22,45,0.62
2013-12-22,44.2,40.9,37.5,38.9,36.9,33.5,93,86,74,29.51,29.28,50,23,50,0.18
2013-12-23,51.0,43.0,37.6,46.8,39.4,35.7,97,87,80,29.50,28.23,39,14,39,0.50
2013-12-24,50.0,42.8,40.4,46.3,36.8,32.8,96,79,70,28.45,28.22,64,32,64,0.12
2013-12-25,46.2,44.1,39.9,42.2,39.6,35.4,97,84,68,29.06,28.44,54,25,54,0.11
2013-12-26,43.9,42.2,38.6,40.8,39.1,36.3,93,89,83,29.26,28.50,35,12,35,0.17
2013-12-27,48.1,45.7,38.5,44.9,41.8,36.6,96,86,77,28.74,28.10,58,30,58,0.39
2013-12-28,45.3,43.4,40.3,41.2,39.2,36.9,95,85,75,29.49,28.75,43,19,43,0.43
2013-12-29,50.2,43.1,40.7,47.6,40.4,37.6,96,90,84,29.78,29.41,34,9,34,0.49
2013-12-30,50.1,44.6,42.0,48.0,43.0,40.6,97,94,85,29.45,29.32,36,6,36,0.54
2013-12-31,44.7,44.7,44.7,41.7,41.7,41.7,89,89,89,29.45,29.45,20,20,20,0.54
2014-1-1,44.7,44.7,44.7,41.7,41.7,41.7,89,89,89,29.45,29.45,20,20,20,0.54
2014-1-2,45.5,44.6,43.4,42.8,41.6,40.3,93,89,86,29.45,28.81,29,14,29,0.61